Main page
METAR-TAF:

METAR-TAF

Airports :

Ardabil Airport

Ardabil, Iran

latitude: 38-19-35N, longitude: 048-25-28E, elevation: 1315 m

Current weather observation

The report was made 35 minutes ago, at 07:30 UTC
Wind 19 kt from the East/Northeast
Temperature 23°C
Humidity 41%
Pressure 1018 hPa
Visibility 10 km or more
no clouds below 1500 m and no cumulonimbus

METAR: OITL 250730Z 06019KT CAVOK 23/09 Q1018

Time: 12:35 (08:05 UTC)


TAF: missing

Weather observations and forecasts of more than 4000 airports (METAR and TAF reports).

The available stations are represented by yellow and red dots on the map.

Hover mouse over dot to see the name of the station.

Then click to see weather observations and forecasts.

To change the map : click on the green buttons with a black cross to zoom in, on the green button with a dash to zoom out, or on the green arrows for adjacent maps.


METAR-TAF: